• In Hungary
  • List of Countries
  • For 7 days
  • Water Temperature
  • Satellite Maps
  • Weather Map
  • News
  • Weather Widgets
  • user-avatar
    Login

    Hourly Weather Majdany

    Today, 20 July, Friday

    Time Temperature Precipitation Wind Pressure Humidity
    00:00 +18°C° 0 mm 3 mps 737 mmHg 89%
    01:00 +18°C° 0 mm 3 mps 737 mmHg 90%
    02:00 +17°C° 0 mm 3 mps 737 mmHg 90%
    03:00 +17°C° 0 mm 3 mps 737 mmHg 91%
    04:00 +17°C° 0 mm 3 mps 737 mmHg 91%
    05:00 +18°C° 0 mm 4 mps 737 mmHg 87%
    06:00 +19°C° 0 mm 4 mps 737 mmHg 82%
    07:00 +21°C° 0 mm 4 mps 737 mmHg 78%
    08:00 +22°C° 0.1 mm 4 mps 737 mmHg 73%
    09:00 +23°C° 0.1 mm 4 mps 737 mmHg 69%
    10:00 +25°C° 0.1 mm 4 mps 737 mmHg 64%
    11:00 +25°C° 0.1 mm 4 mps 737 mmHg 62%
    12:00 +26°C° 0.1 mm 5 mps 737 mmHg 60%
    13:00 +26°C° 0.1 mm 5 mps 737 mmHg 59%
    14:00 +25°C° 0.1 mm 5 mps 737 mmHg 60%
    15:00 +25°C° 0.1 mm 5 mps 737 mmHg 62%
    16:00 +23°C° 0.1 mm 5 mps 737 mmHg 63%
    17:00 +22°C° 0 mm 5 mps 737 mmHg 67%
    18:00 +21°C° 0 mm 4 mps 737 mmHg 71%
    19:00 +20°C° 0 mm 4 mps 737 mmHg 74%
    20:00 +18°C° 0 mm 4 mps 737 mmHg 76%
    21:00 +17°C° 0 mm 4 mps 737 mmHg 79%
    22:00 +16°C° 0 mm 3 mps 737 mmHg 81%
    23:00 +14°C° 0 mm 3 mps 737 mmHg 81%

    Tomorrow, 21 July, Saturday

    Time Temperature Precipitation Wind Pressure Humidity
    00:00 +14°C° 0 mm 3 mps 737 mmHg 82%
    01:00 +13°C° 0 mm 3 mps 737 mmHg 82%
    02:00 +13°C° 0 mm 3 mps 736 mmHg 84%
    03:00 +13°C° 0 mm 3 mps 736 mmHg 85%
    04:00 +13°C° 0 mm 3 mps 736 mmHg 87%
    05:00 +14°C° 0 mm 3 mps 736 mmHg 83%
    06:00 +17°C° 0 mm 3 mps 737 mmHg 79%
    07:00 +18°C° 0 mm 3 mps 737 mmHg 75%
    08:00 +20°C° 0 mm 3 mps 737 mmHg 69%
    09:00 +22°C° 0 mm 3 mps 737 mmHg 64%
    10:00 +24°C° 0 mm 3 mps 737 mmHg 58%
    11:00 +25°C° 0 mm 3 mps 737 mmHg 56%
    12:00 +26°C° 0 mm 3 mps 737 mmHg 53%
    13:00 +26°C° 0 mm 3 mps 738 mmHg 51%
    14:00 +26°C° 0 mm 3 mps 737 mmHg 53%
    15:00 +26°C° 0 mm 3 mps 737 mmHg 56%
    16:00 +25°C° 0 mm 3 mps 737 mmHg 58%
    17:00 +24°C° 0 mm 3 mps 737 mmHg 63%
    18:00 +22°C° 0 mm 3 mps 737 mmHg 69%
    19:00 +20°C° 0 mm 3 mps 737 mmHg 75%
    20:00 +19°C° 0 mm 3 mps 737 mmHg 79%
    21:00 +18°C° 0 mm 2 mps 737 mmHg 82%
    22:00 +16°C° 0 mm 2 mps 737 mmHg 86%
    23:00 +16°C° 0 mm 2 mps 737 mmHg 86%

    Day after tomorrow, 22 July, Sunday

    Time Temperature Precipitation Wind Pressure Humidity
    00:00 +16°C° 0 mm 2 mps 737 mmHg 86%
    01:00 +16°C° 0 mm 2 mps 737 mmHg 87%
    02:00 +16°C° 0 mm 2 mps 737 mmHg 87%
    03:00 +15°C° 0 mm 2 mps 737 mmHg 88%
    04:00 +15°C° 0 mm 2 mps 737 mmHg 89%
    05:00 +17°C° 0 mm 2 mps 737 mmHg 84%
    06:00 +18°C° 0 mm 2 mps 737 mmHg 79%
    07:00 +19°C° 0 mm 2 mps 738 mmHg 75%
    08:00 +21°C° 0 mm 2 mps 738 mmHg 68%
    09:00 +23°C° 0 mm 2 mps 738 mmHg 62%
    10:00 +24°C° 0 mm 2 mps 738 mmHg 55%
    11:00 +25°C° 0 mm 2 mps 738 mmHg 53%
    12:00 +25°C° 0 mm 2 mps 738 mmHg 51%
    13:00 +26°C° 0 mm 2 mps 738 mmHg 49%
    14:00 +26°C° 0 mm 3 mps 738 mmHg 50%
    15:00 +25°C° 0 mm 3 mps 738 mmHg 51%
    16:00 +25°C° 0 mm 3 mps 738 mmHg 52%
    17:00 +24°C° 0 mm 3 mps 738 mmHg 59%
    18:00 +21°C° 0 mm 2 mps 738 mmHg 65%
    19:00 +20°C° 0 mm 2 mps 737 mmHg 71%
    20:00 +19°C° 0 mm 2 mps 738 mmHg 75%
    21:00 +18°C° 0 mm 1 mps 738 mmHg 78%
    22:00 +16°C° 0 mm 1 mps 738 mmHg 82%
    23:00 +16°C° 0 mm 1 mps 738 mmHg 82%

    23 July, Monday

    Time Temperature Precipitation Wind Pressure Humidity
    00:00 +15°C° 0 mm 1 mps 737 mmHg 82%
    01:00 +15°C° 0 mm 1 mps 737 mmHg 82%
    02:00 +15°C° 0 mm 1 mps 737 mmHg 82%
    03:00 +15°C° 0 mm 1 mps 737 mmHg 81%
    04:00 +14°C° 0 mm 1 mps 737 mmHg 81%
    05:00 +16°C° 0 mm 1 mps 737 mmHg 75%
    06:00 +19°C° 0 mm 1 mps 738 mmHg 69%
    07:00 +21°C° 0 mm 1 mps 738 mmHg 63%
    08:00 +23°C° 0 mm 1 mps 738 mmHg 58%
    09:00 +24°C° 0 mm 1 mps 738 mmHg 53%
    10:00 +26°C° 0 mm 1 mps 738 mmHg 48%
    11:00 +26°C° 0.1 mm 1 mps 738 mmHg 49%
    12:00 +26°C° 0.1 mm 2 mps 738 mmHg 50%
    13:00 +26°C° 0.1 mm 2 mps 738 mmHg 51%
    14:00 +26°C° 0.5 mm 2 mps 738 mmHg 55%
    15:00 +25°C° 0.5 mm 2 mps 738 mmHg 58%
    16:00 +25°C° 0.5 mm 2 mps 738 mmHg 62%
    17:00 +24°C° 0.2 mm 2 mps 738 mmHg 67%
    18:00 +23°C° 0.2 mm 2 mps 738 mmHg 71%
    19:00 +20°C° 0.2 mm 2 mps 738 mmHg 76%
    20:00 +19°C° 0 mm 2 mps 738 mmHg 80%
    21:00 +18°C° 0 mm 2 mps 738 mmHg 84%
    22:00 +16°C° 0 mm 2 mps 738 mmHg 89%
    23:00 +16°C° 0 mm 2 mps 738 mmHg 89%

    24 July, Tuesday

    Time Temperature Precipitation Wind Pressure Humidity
    00:00 +15°C° 0 mm 2 mps 738 mmHg 90%
    01:00 +15°C° 0 mm 2 mps 738 mmHg 91%
    02:00 +15°C° 0 mm 2 mps 737 mmHg 92%
    03:00 +14°C° 0 mm 2 mps 737 mmHg 92%
    04:00 +14°C° 0 mm 2 mps 737 mmHg 93%
    05:00 +16°C° 0 mm 2 mps 738 mmHg 88%
    06:00 +18°C° 0 mm 1 mps 738 mmHg 82%
    07:00 +20°C° 0 mm 1 mps 738 mmHg 77%
    08:00 +20°C° 0 mm 2 mps 738 mmHg 71%
    09:00 +23°C° 0 mm 2 mps 738 mmHg 64%
    10:00 +24°C° 0 mm 2 mps 738 mmHg 57%
    11:00 +25°C° 0 mm 2 mps 738 mmHg 56%
    12:00 +25°C° 0 mm 3 mps 738 mmHg 55%
    13:00 +25°C° 0 mm 3 mps 738 mmHg 54%
    14:00 +25°C° 0 mm 3 mps 738 mmHg 56%
    15:00 +25°C° 0 mm 3 mps 738 mmHg 57%
    16:00 +24°C° 0 mm 3 mps 738 mmHg 59%
    17:00 +22°C° 0 mm 3 mps 738 mmHg 66%
    18:00 +21°C° 0 mm 3 mps 738 mmHg 72%
    19:00 +20°C° 0 mm 2 mps 738 mmHg 78%
    20:00 +19°C° 0 mm 2 mps 738 mmHg 81%
    21:00 +19°C° 0 mm 1 mps 738 mmHg 84%
    22:00 +19°C° 0 mm 1 mps 738 mmHg 86%
    23:00 +18°C° 0 mm 1 mps 738 mmHg 86%

    25 July, Wednesday

    Time Temperature Precipitation Wind Pressure Humidity
    00:00 +18°C° 0 mm 1 mps 738 mmHg 86%
    01:00 +18°C° 0 mm 1 mps 737 mmHg 85%
    02:00 +18°C° 0.1 mm 1 mps 737 mmHg 86%
    03:00 +17°C° 0.1 mm 2 mps 737 mmHg 87%
    04:00 +17°C° 0.1 mm 2 mps 737 mmHg 88%
    05:00 +17°C° 0.2 mm 2 mps 738 mmHg 88%
    06:00 +17°C° 0.2 mm 2 mps 738 mmHg 88%
    07:00 +18°C° 0.2 mm 2 mps 738 mmHg 89%
    08:00 +19°C° 0.1 mm 2 mps 738 mmHg 84%
    09:00 +20°C° 0.1 mm 2 mps 738 mmHg 80%
    10:00 +21°C° 0.1 mm 2 mps 738 mmHg 76%
    11:00 +22°C° 0.2 mm 3 mps 738 mmHg 74%
    12:00 +24°C° 0.2 mm 3 mps 738 mmHg 71%
    13:00 +24°C° 0.2 mm 3 mps 738 mmHg 69%
    14:00 +24°C° 0.6 mm 3 mps 737 mmHg 71%
    15:00 +24°C° 0.6 mm 3 mps 737 mmHg 73%
    16:00 +24°C° 0.6 mm 3 mps 737 mmHg 76%
    17:00 +22°C° 0.3 mm 3 mps 737 mmHg 80%
    18:00 +21°C° 0.3 mm 2 mps 737 mmHg 84%
    19:00 +21°C° 0.3 mm 2 mps 737 mmHg 88%
    20:00 +20°C° 0 mm 2 mps 737 mmHg 91%
    21:00 +20°C° 0 mm 1 mps 737 mmHg 94%
    22:00 +19°C° 0 mm 1 mps 737 mmHg 97%
    23:00 +19°C° 0 mm 1 mps 737 mmHg 97%
    Show more